Regional Weather Roundup
Issued by NWS

Home | Current Version | Previous Version | Text Only | Print | Product List | Glossary On
Versions: 1 2 3 4 5 6 7 8 9 10 11 12 13 14 15 16 17 18 19 20 21 22 23 24 25 26 27 28 29 30 31 32 33 34 35 36 37 38 39 40 41 42 43 44 45 46 47 48 49 50
000
ASUS43 KDTX 252301
RWRMI
MICHIGAN HOURLY REGIONAL WEATHER ROUNDUP
NATIONAL WEATHER SERVICE DETROIT/PONTIAC MI
700 PM EDT MON SEP 25 2017

NOTE: "FAIR" INDICATES FEW OR NO CLOUDS BELOW 12,000 FEET WITH NO
SIGNIFICANT WEATHER AND/OR OBSTRUCTION TO VISIBILITY.

MIZ047>049-052>055-059>063-066>070-074>076-081>083-260000-
SOUTHEAST LOWER MICHIGAN

CITY           SKY/WX    TMP DP  RH WIND       PRES   REMARKS
ADRIAN         PTCLDY    86  60  41 S5        29.98S
ALMA           CLEAR     80  55  42 CALM      29.97S
ANN ARBOR      PTCLDY    85  61  44 SE8       29.98S
BAD AXE        CLEAR     80  64  57 E3        29.99S
CARO           CLEAR     83  63  51 CALM      29.97S
DETROIT CITY   CLEAR     83  67  58 SE6       29.98S
DETROIT        MOCLDY    83  63  50 SE7       29.99S
FLINT          CLEAR     83  63  50 S3        29.97F
GROSSE ILE     PTCLDY    79  67  66 SE3       29.97S
HILLSDALE      CLEAR     82  59  44 CALM      29.99S
HOWELL         CLEAR     85  59  41 S7        29.98S

CITY           SKY/WX    TMP DP  RH WIND       PRES   REMARKS
JACKSON        CLEAR     85  58  39 S6        29.97F
LAMBERTVILLE   PTCLDY    82  65  56 E3        29.98S
LANSING        CLEAR     85  58  39 S5        29.97S
LAPEER         FAIR      83  64  52 SE3       29.98F
MASON          CLEAR     84  63  48 CALM      29.97F
MONROE         PTCLDY    82  62  52 SE3       29.98S
MT. CLEMENS    MOCLDY    81  70  70 SE3       29.97S
PONTIAC        PTCLDY    85  61  44 SE5       29.97F
PORT HOPE        N/A     73  69  87 SE6       29.97F
PORT HURON     PTCLDY    81  70  69 CALM      29.99S
TRI CITIES     CLEAR     84  65  52 NE7       29.97S
MIDLAND        FAIR      81  67  62 NE3       29.96S
TROY           PTCLDY    86  64  46 E5        30.00S
SAGINAW HB     CLEAR     82  63  51 N3        29.96S
$$
MIZ043>046-050>051-056>058-064>065-071>073-077>080-260000-
SOUTHWEST LOWER MICHIGAN

CITY           SKY/WX    TMP DP  RH WIND       PRES   REMARKS
BATTLE CREEK   CLEAR     85  56  37 S8        29.98S
BENTON HARBOR  PTCLDY    85  57  38 SE3       29.95S
BIG RAPIDS     PTCLDY    83  49  30 CALM      29.97R
COLDWATER      CLEAR     84  54  35 CALM      29.98S
FREMONT        FAIR      85  55  34 W6        29.95S
HOLLAND        PTCLDY    86  55  34 S5        29.96S
GRAND RAPIDS   MOCLDY    86  54  33 CALM      29.96F
IONIA          FAIR      80  55  41 CALM      29.95F
KALAMAZOO      CLEAR     84  52  33 CALM      29.97S
LUDINGTON      CLEAR     76  61  59 CALM      29.95S
MARSHALL       CLEAR     83  58  43 S3        29.97S
MOUNT PLEASANT PTCLDY    79  61  55 CALM      29.97R
MUSKEGON       PTCLDY    84  56  38 SW7       29.96R
SOUTH HAVEN    PTCLDY    82  62  49 CALM      29.96S
$$
MIZ016>042-260000-
NORTHERN LOWER MICHIGAN

CITY           SKY/WX    TMP DP  RH WIND       PRES   REMARKS
ALPENA         PTCLDY    79  70  74 E6        29.98S
BEAVER ISLAND  CLEAR     76  65  67 CALM      29.95S
BELLAIRE       CLEAR     76  65  69 CALM      29.95S
CADILLAC       CLEAR     85  47  26 SE7       29.98S
CHARLEVOIX     CLEAR     77  63  60 CALM      29.98S
FRANKFORT      CLEAR     77  61  58 CALM      29.95S
GAYLORD        PTCLDY    83  51  33 CALM      29.99S
GRAYLING       PTCLDY    83  51  33 S5        29.99S
HARBOR SPRINGS CLEAR     76  61  59 CALM      29.95S
HOUGHTON LAKE  PTCLDY    82  59  45 S6        29.99F
MANISTEE       CLEAR     80  63  55 W5        29.94
OSCODA         PTCLDY    75  65  70 S9        29.98F
PELLSTON       CLEAR     83  62  49 NE7       29.96F
ROGERS CITY    PTCLDY    78  67  68 CALM      29.97F
TRAVERSE CITY  PTCLDY    82  63  52 NE3       29.93S
$$
MIZ007>008-015-260000-
EASTERN UPPER MICHIGAN

CITY           SKY/WX    TMP DP  RH WIND       PRES   REMARKS
KINROSS        CLEAR     80  63  55 S5        29.97S
MACKINAC ISLAN CLEAR     76  62  61 SE7       29.97S
NEWBERRY       CLEAR     75  65  70 CALM      29.96R
S. S. MARIE    CLEAR     80  64  58 S7        29.95S
MUNISING         N/A     68  66  93 N9        29.96R
$$
MIZ004>006-011>014-085-260000-
CENTRAL UPPER MICHIGAN

CITY           SKY/WX    TMP DP  RH WIND       PRES   REMARKS
MANISTIQUE     CLEAR     70  64  81 S5        29.94S
MENOMINEE      CLEAR     77  63  61 S6        29.92S
SAWYER-GWINN   MOCLDY    66  64  94 NE12      29.99R
$$
MIZ001>003-009>011-084-260000-
WESTERN UPPER MICHIGAN

CITY           SKY/WX    TMP DP  RH WIND       PRES   REMARKS
IRON MOUNTAIN  CLEAR     81  63  54 S6        29.91S
HOUGHTON       CLOUDY    65  58  78 NE6       29.97R
COPPER HARBOR    N/A     61  55  81 E10       29.98S
IRONWOOD       TSTM      58  56  93 VRB3      29.99S
$$

ABBREVIATIONS USED IN REMARKS
   TC - TEMPERATURE IN CELSIUS
  WCI - WIND CHILL INDEX
   HX - HEAT INDEX
  VSB - VISIBILITY





USA.gov is the U.S. government's official web portal to all federal, state and local government web resources and services.